Regional Weather Roundup
Issued by NWS

Home | Current Version | Previous Version | Text Only | Print | Product List | Glossary On
Versions: 1 2 3 4 5 6 7 8 9 10 11 12 13 14 15 16 17 18 19 20 21 22 23 24 25 26 27 28 29 30 31 32 33 34 35 36 37 38 39 40 41 42 43 44 45 46 47 48 49 50
000
ASUS44 KFWD 301915
RWRTX
NORTH TEXAS HOURLY WEATHER ROUNDUP
NATIONAL WEATHER SERVICE FORT WORTH TX
200 PM CDT SAT AUG 30 2014

NOTE: "FAIR" INDICATES FEW OR NO CLOUDS BELOW 12,000 FEET WITH NO
SIGNIFICANT WEATHER AND/OR OBSTRUCTIONS TO VISIBILITY.

TXZ118-119-302000-
DALLAS/FORT WORTH METROPLEX

CITY           SKY/WX    TMP DP  RH WIND       PRES   REMARKS
DFW AIRPORT    MOSUNNY   90  71  53 CALM      29.93F HX  96
DALLAS LOVE    PTSUNNY   90  71  53 NE5       29.94F HX  96
FTW MEACHAM    MOSUNNY   94  69  44 E9        29.92F HX  99
DAL-EXECUTIVE  PTSUNNY   91  69  48 E6        29.94F HX  96
FTW-ALLIANCE   MOSUNNY   90  69  50 CALM      29.93F HX  94
FTW-NAS-JRB    MOSUNNY   96  67  38 E7        29.96F HX 100
FTW-SPINKS     MOSUNNY   91  72  52 SE3       29.95F HX  98
ARLINGTON      MOSUNNY   89  70  53 SE9       29.94F HX  94
GRAND PRAIRIE  MOSUNNY   88  68  51 NE5       29.95  HX  91
ADDISON        PTSUNNY   90  68  48 VRB5      29.95F HX  93
MESQUITE       MOSUNNY   90  68  48 SE6       29.95F HX  93
LANCASTER      SUNNY     87  68  53 CALM      29.96S HX  90
$$

TXZ091>094-102>105-117-120-121-131>134-302000-
NORTH CENTRAL TEXAS

CITY           SKY/WX    TMP DP  RH WIND       PRES   REMARKS
SHRMAN/DENISON MOSUNNY   91  67  44 CALM      29.94F HX  94
GAINESVILLE    MOSUNNY   87  70  58 SE3       29.96S HX  92
BOWIE          MOSUNNY   90  64  42 E5        29.94F HX  91
BRIDGEPORT     MOSUNNY   91  64  40 SE3       29.95F HX  92
DECATUR        MOSUNNY   89  67  48 E3        29.95S HX  91
DENTON         MOSUNNY   90  70  51 VRB3      29.93F HX  95
MCKINNEY       MOSUNNY   89  70  53 MISG      29.94F HX  94
GREENVILLE     PTSUNNY   88  68  51 CALM      29.95F HX  91
ROCKWALL       PTSUNNY   90  73  57 CALM      29.94S HX  98
TERRELL        SUNNY     91  69  48 VRB3      29.95F HX  96
WAXAHACHIE     CLOUDY    86  67  53 NE3       29.96S
CLEBURNE       PTSUNNY   91  72  52 CALM      29.96S HX  98
GRANBURY       MOSUNNY   92  68  45 NE5       29.93F HX  96
$$

TXZ083>090-098>101-113>116-127>130-139>142-154-155-302000-
WESTERN NORTH TEXAS

CITY           SKY/WX    TMP DP  RH WIND       PRES   REMARKS
WICHITA FALLS  SUNNY     92  67  43 W5        29.93F HX  95
WF-KICKAPOO    SUNNY     94  61  33 N8        29.95S HX  94
VERNON         SUNNY     93  64  38 NW6       29.95F HX  95
ABILENE        MOSUNNY   96  62  32 VRB6      29.97F HX  97
ABILENE-DYESS  MOSUNNY   91  65  41 NE5       29.97F HX  93
BRECKENRIDGE   MOSUNNY   94  63  35 CALM      29.94F HAZE    HX  95
GRAHAM         MOSUNNY   94  62  34 E3        29.93F HX  94
MINERAL WELLS  MOSUNNY   92  68  45 N6        29.92F HX  96
STEPHENVILLE   MOSUNNY   92  65  40 E6        29.97F HX  93
COMANCHE         N/A     93  65  39 SE6       29.96F HX  96
BROWNWOOD      MOSUNNY   91  66  43 N3        29.95F HX  94
COLEMAN        SUNNY     92  61  35 NE3       29.97F HX  91
BRADY          PTSUNNY   90  66  45 NE3       29.97S HX  92
$$

TXZ143>147-156>162-174-175-302000-
CENTRAL TEXAS

CITY           SKY/WX    TMP DP  RH WIND       PRES   REMARKS
WACO           MOSUNNY   91  69  48 NE6       29.94F HX  96
WACO-TSTC      SUNNY     91  68  46 S6        29.94F HX  95
WACO-MCGREGOR  SUNNY     90  70  51 NE7       29.95F HX  95
HILLSBORO      MOSUNNY   89  66  46 CALM      29.95S HX  92
CORSICANA      PTSUNNY   88  69  53 VRB5      29.95F HX  92
MEXIA          PTSUNNY   86  71  62 CALM      29.94F HX  91
HEARNE           N/A     87  71  59 NE6       29.95F HX  93
CAMERON        PTSUNNY   90  71  53 SE6       29.94F HX  95
TEMPLE         MOSUNNY   91  66  43 N6        29.94F HX  94
KILLEEN        MOSUNNY   91  68  46 SE5       29.94F HX  95
KILLEEN-SKYLRK PTSUNNY   91  68  46 CALM      29.93F HX  95
FORT HOOD      MOSUNNY   96  69  41 NE6       29.93F HX 102
GATESVILLE     MOSUNNY   90  70  51 NE3       29.96F HX  95
LAMPASAS       SUNNY     94  68  41 E8        29.94F HX  99
$$

TXZ095>097-106>112-122>126-135>138-148>153-164>167-302000-
EAST TEXAS

CITY           SKY/WX    TMP DP  RH WIND       PRES   REMARKS
PARIS          MOSUNNY   86  66  51 CALM      29.96F
SULPHUR SPRNGS PTSUNNY   86  68  55 NW3       29.97F
MOUNT PLEASANT MOSUNNY   87  69  54 CALM      29.95F HX  91
GILMER         SUNNY     88  72  58 E3        29.95F HX  94
MINEOLA        MOSUNNY   90  72  55 CALM      29.95F HX  96
TYLER          PTSUNNY   88  69  53 VRB3      29.94F HX  92
LONGVIEW       CLOUDY    85  71  63 N7        29.93F HX  90
MARSHALL       PTSUNNY   89  75  64 CALM      29.95F HX  99
ATHENS         CLOUDY    84  68  58 N3        29.94F
PALESTINE      PTSUNNY   87  71  59 W3        29.95F HX  92
JACKSONVILLE   MOSUNNY   85  70  59 CALM      29.97F HX  90
HENDERSON      CLOUDY    86  71  60 CALM      29.94F HX  91
NACOGDOCHES    PTSUNNY   86  72  62 NW7       29.94F HX  92
LUFKIN         CLOUDY    85  74  69 E9        29.94F HX  92
$$

SUPPLEMENTAL OBSERVATIONS (CENTRAL)

CITY           SKY/WX    TMP DP  RH WIND       PRES   REMARKS
LAKE TEXOMA      N/A     88  70  55 N1          N/A  HX  92
CADDO GRASSLND   N/A     91  70  49 SE6         N/A  HX  97
PAT MAYSE LAKE   N/A     86  70  58 S3          N/A  HX  90
GREENVILLE       N/A     90  68  48 E6          N/A  HX  93
CEDAR HILL       N/A     91  70  49 SE3         N/A  HX  97
PALESTINE        N/A     90  72  55 SE3         N/A  HX  96
LAKE LIMESTONE   N/A     90  68  48 NE5         N/A  HX  93
MCGREGOR         N/A     91  66  43 E7          N/A  HX  94
TEMPLE           N/A     93  68  43 E6          N/A  HX  97
$$

SUPPLEMENTAL OBSERVATIONS (WEST)

CITY           SKY/WX    TMP DP  RH WIND       PRES   REMARKS
MILLERS CREEK    N/A     91  77  62 NE5         N/A  HX 105
POSSUM KINGDOM   N/A     93  64  38 E5          N/A  HX  95
LBJ GRASSLAND    N/A     93  70  46 N5          N/A  HX  99
GRANBURY         N/A     91  68  46 NE6         N/A  HX  95
COMANCHE         N/A     90  66  45 SE6         N/A  HX  92
HAMBY            N/A     93  59  31 N6G14       N/A  HX  92
IVIE RESERVOIR   N/A     95  66  38 N7          N/A  HX  98
COLORADO BEND    N/A     93  63  36 E6          N/A  HX  94
$$

SUPPLEMENTAL OBSERVATIONS (EAST)

CITY           SKY/WX    TMP DP  RH WIND       PRES   REMARKS
CLARKSVILLE      N/A     90  70  51 SE2         N/A  HX  95
TEXARKANA        N/A     90  68  48 NE5         N/A  HX  93
LINDEN           N/A     90  72  55 S1          N/A  HX  96
CADDO LAKE       N/A     88  72  58 NW3         N/A  HX  94
GILMER           N/A     90  70  51 E2          N/A  HX  95
HENDERSON        N/A     88  72  58 N2          N/A  HX  94
LUFKIN           N/A     88  72  58 MISG        N/A  HX  94
S SABINE NF      N/A     82  75  78 SE5         N/A
$$

SUPPLEMENTAL OBSERVATIONS ARE A COLLECTION OF AUTOMATED INSTRUMENTS
THAT ARE MAINTAINED BY A VARIETY OF FEDERAL AND STATE AGENCIES.
CERTAIN ELEMENTS...SUCH AS HUMIDITY VALUES AND SUSTAINED WIND
SPEEDS...MAY BE APPROXIMATED.



USA.gov is the U.S. government's official web portal to all federal, state and local government web resources and services.